Regional Weather Roundup
Issued by NWS

Home | Current Version | Previous Version | Graphics & Text | Print | Product List | Glossary On
Versions: 1 2 3 4 5 6 7 8 9 10 11 12 13 14 15 16 17 18 19 20 21 22 23 24 25 26 27 28 29 30 31 32 33 34 35 36 37 38 39 40 41 42 43 44 45 46 47 48 49 50
000
ASUS45 KCYS 191110
RWRWY

WYOMING REGIONAL WEATHER ROUNDUP
NATIONAL WEATHER SERVICE CHEYENNE WY
400 AM MST FRI DEC 19 2014

NOTE:  "FAIR" INDICATES FEW OR NO CLOUDS BELOW 12,000 FEET
WITH NO SIGNIFICANT WEATHER AND/OR OBSTRUCTIONS TO VISIBILITY.

WYZ001-191200-
YELLOWSTONE NATIONAL PARK

CITY           SKY/WX    TMP DP  RH WIND       PRES   REMARKS
LK YELLOWSTONE   N/A     23  18  81 W5        30.07S WCI  17
W YELLOWSTONE  NOT AVBL

$$
WYZ002>013-054>058-071-098>099-191200-
NORTHERN WYOMING

CITY           SKY/WX    TMP DP  RH WIND       PRES   REMARKS
JACKSON        CLOUDY    28  27  93 SW12      30.08F WCI  18
CODY           FAIR      30  19  64 S8        29.98S WCI  23
GREYBULL       FAIR       7   4  87 SW5       30.06F WCI  -2
WORLAND        FAIR       0  -3  87 VRB6      30.04F WCI -12
SHERIDAN       FAIR      21  12  68 CALM      29.96F
BUFFALO        FAIR      30  11  45 W6        29.97F WCI  24
GILLETTE       FAIR      16  10  77 E3        29.97F
HULETT           N/A    N/A N/A N/A MISG        N/A
NEWCASTLE      FAIR      21  18  86 MISG      30.00F

$$
WYZ014>020-022>026-101>103-191200-
CENTRAL WYOMING

CITY           SKY/WX    TMP DP  RH WIND       PRES   REMARKS
BIG PINEY      CLOUDY    15  10  80 CALM      30.12F
PINEDALE       CLOUDY    19  18  93 W3        30.11F
DUBOIS         CLOUDY    28  18  64 NW15G26   30.01S WCI  17
LANDER         FAIR      -2  -6  83 CALM      30.05S FOG
RIVERTON       FOG        6   3  87 SE3       30.07S VSB 1/4
CASPER         FAIR      23  15  71 SW14      30.04S WCI  11
DOUGLAS        FAIR      19  13  77 NW3       30.02F

$$
WYZ021-027>030-104>119-191200-
SOUTHERN WYOMING

CITY           SKY/WX    TMP DP  RH WIND       PRES   REMARKS
EVANSTON       FAIR      20  17  88 S6        30.15S WCI  12
KEMMERER       PTSUNNY   21  19  93 SW7       30.13F WCI  13
FORT BRIDGER   FAIR      25  20  81 SW10      30.17S WCI  15
ROCK SPRINGS   FAIR      20  16  84 SW12      30.13S WCI   8
DIXON          CLOUDY   N/A N/A N/A CALM      30.20R
RAWLINS        FAIR      21  18  88 SW20      30.08F WCI   6
SARATOGA       PTSUNNY   18  14  86 SW7       30.11S WCI   8
LARAMIE        FAIR      18  10  71 SW13      30.04S WCI   5
CHEYENNE       FAIR      24  12  60 SW10      30.03S WCI  14
TORRINGTON     FAIR     N/A N/A N/A CALM      30.04S
PINE BLUFFS    FAIR      16  12  86 W6        30.05F WCI   7

$$


USA.gov is the U.S. government's official web portal to all federal, state and local government web resources and services.